Regional Weather Roundup
Issued by NWS Charleston, SC

Current Version | Previous Version | Graphics & Text | Print | Product List | Glossary On
Versions: 1 2 3 4 5 6 7 8 9 10 11 12 13 14 15 16 17 18 19 20 21 22 23 24 25 26 27 28 29 30 31 32 33 34 35 36 37 38 39 40 41 42 43 44 45 46 47 48 49 50
000
ASUS42 KCHS 021528
RWRCHS

REGIONAL WEATHER ROUNDUP
NATIONAL WEATHER SERVICE CHARLESTON SC
1100 AM EDT MON MAY 02 2016

NOTE: "FAIR" INDICATES FEW OR NO CLOUDS BELOW 12,000 FEET WITH NO
SIGNIFICANT WEATHER AND/OR OBSTRUCTIONS TO VISIBILITY.

NOT ALL STATIONS ARE QUALITY CONTROLLED. USE DATA WITH CAUTION...
ESPECIALLY DEWPOINT OBSERVATIONS.

SCZ027-030-031-034>040-042>050-021600-
...SOUTHEAST SOUTH CAROLINA...

CITY           SKY/WX    TMP DP  RH WIND       PRES   REMARKS
N CHARLESTON   PTSUNNY   82  67  60 SW12      30.06S
WATERFRONT PRK   N/A     77  71  82 SW9       30.04S
MOUNT PLEASANT FAIR      81  70  69 SW13      30.07S
JOHNS ISLAND   PTSUNNY   81  72  74 SW16G23   30.07S
PINOPOLIS        N/A     81  72  74 SW6       29.99F
MONCKS CORNER  PTSUNNY   79  64  61 SW12      30.06S
SUMMERVILLE    FAIR      81  72  74 SW7       30.07S
BEAUFORT MCAS  CLOUDY    83  71  67 VRB7      30.06S
BEAUFORT ARPT  FAIR      81  70  69 SW6       30.06S
HILTON HEAD IS PTSUNNY   77  72  83 S14G23    30.09R
WALTERBORO     CLOUDY    81  70  69 SW10      30.07S
ALLENDALE      PTSUNNY   77  70  78 VRB5G12   30.05S

...SOUTHERN MIDLANDS AND PEE DEE...

CITY           SKY/WX    TMP DP  RH WIND       PRES   REMARKS
GEORGETOWN     FAIR      81  68  65 S8        30.07F
KINGSTREE      FAIR      79  68  69 S7        30.06S
ORANGEBURG     CLOUDY    79  70  74 SW9       30.06S
BARNWELL       PTSUNNY   79  75  89 S5        30.06S
AIKEN          FAIR      79  68  69 SW7       30.07F
MANNING        PTSUNNY   77  68  73 SW10      30.06
COLUMBIA       MOSUNNY   80  68  66 SW8       30.03F
SUMTER         PTSUNNY   78  68  70 SW9       30.03F
FLORENCE       CLOUDY    78  67  68 SW8       30.05F
MYRTLE BEACH   PTSUNNY   81  66  61 W12       30.09S
N MYRTLE BEACH PTSUNNY   78  71  79 MISG      30.07R

$$

GAZ063-065-086>088-099>101-113>116-118-119-134>141-150-021600-
...SOUTHEAST GEORGIA...

CITY           SKY/WX    TMP DP  RH WIND       PRES   REMARKS
SAVANNAH ARPT  PTSUNNY   81  68  64 SW13      30.07R
HUNTER AAF     SUNNY     82  71  69 SW8       30.04S
FORT STEWART   PTSUNNY   79  70  73 VRB3      30.04F
STATESBORO     CLOUDY    82  75  79 SW7       30.05F
SYLVANIA       CLOUDY    79  74  85 SW5       30.06F
CLAXTON        FAIR      80  73  79 S3        30.05F

...CSRA...CENTRAL AND FAR SOUTHEAST GEORGIA...

CITY           SKY/WX    TMP DP  RH WIND       PRES   REMARKS
THOMSON        SUNNY     83  72  67 CALM      30.07F
AUGUSTA-BUSH   SUNNY     80  69  69 S7        30.03F
AUGUSTA-DANIEL SUNNY     81  68  64 SE6       30.04F
SWAINSBORO     FAIR      79  70  73 S5        30.06S
VIDALIA        MOSUNNY   79  72  78 S3        30.05F
EASTMAN        FAIR      82  67  60 SW6       30.07S
HAZLEHURST     FAIR      82  72  70 S3        30.04F
ALMA           MOSUNNY   80  70  71 SW9       30.05S
WAYCROSS       MOSUNNY   82  71  71 SW9       30.05F
JESUP          PTSUNNY   82  73  74 SW5       30.06S
BAXLEY         FAIR      81  73  78 SW7       30.05F
BRUNSWICK      PTSUNNY   86  70  58 SW9       30.07S HX  90
SAINT SIMONS   PTSUNNY   79  72  79 S8        30.06F

$$

SCZ027-028-034-036>038-045-046-048>050-GAZ119-141-021600-
...LAKE AND SUPPLEMENTAL COASTAL OBSERVATIONS...

STATION/POSITION TIME  TEMP    WIND        PRES    WAVE   SWELL
                       AIR SEA DIR/SP/G            HT/PER HT/PER/DIR
                 (UTC) (F)     (DEG/KT/KT) (MB)    (FT/S) (FT/S/D)
WINYAH BAY       1445   78     230/  8     1017.0S
LAKE MURRAY      1400   72     210/  4/  5 1016.9S
ACE BASIN NERRS  1400   79        CALM     1018.0
FORT PULASKI     1500   78 74  180/  7/ 13 1018.6R
SAPELO ISLAND    1500   81     210/ 10     1018.0S

$$

ANZ835-935-AMZ111-154-330-350-352-354-370-450-454-472-021600-
...C-MAN AND BUOY OBSERVATIONS...

STATION/POSITION TIME  TEMP    WIND        PRES    WAVE   SWELL
                       AIR SEA DIR/SP/G            HT/PER HT/PER/DIR
                 (UTC) (F)     (DEG/KT/KT) (MB)    (FT/S) (FT/S/D)
BUOY 41004       1450   75 73  230/  6/  6 1018.1S   3/ 5   3/ 5
BUOY 41008       NOT AVBL
FOLLY BEACH CMAN 1500   76     200/  8/  9 1018.6R
CAPERS NEARSHORE 1408   74 73  230/  6/  8 1018.2R
FRIPP NEARSHORE  1508   75 74  210/  8/ 10 1018.0R


STATION/POSITION TIME  TEMP    WIND        PRES    WAVE   SWELL
                       AIR SEA DIR/SP/G            HT/PER HT/PER/DIR
                 (UTC) (F)     (DEG/KT/KT) (MB)    (FT/S) (FT/S/D)
5E ST. MARYS GA  1421      74                N/A     2/10
FRYING PAN BUOY  1500   74 72  200/  8/ 10 1018.6R
BUOY 41025       1450   74 73  230/ 16/ 19 1017.8F   4/ 9   3/ 80/ 9
CAPE LOOKOUT NC  1500   74     220/ 11/ 15 1018.0F
BUOY 41002       1450   74 74  160/ 12/ 12 1021.0R   3/10   3/ 30/10
BUOY 41010       1420   77 79  170/ 12/ 14 1019.2R
ST AUGUSTINE FL  1500   74 72  130/  8/  9 1018.9F


$$



USA.gov is the U.S. government's official web portal to all federal, state and local government web resources and services.